{"data":{"norad_id":64547,"epoch":"2026-05-24T13:27:41.087808Z","epoch_age_seconds":109638,"freshness":"FRESH","line1":"1 64547U 25135V   26144.56089222  .00006734  00000+0  27532-3 0  9994","line2":"2 64547  97.4599 260.4222 0000904  74.9414 285.1923 15.24682754 51326","mean_motion":15.24682754,"eccentricity":9.04e-5,"inclination_deg":97.4599,"raan_deg":260.4222,"arg_perigee_deg":74.9414,"mean_anomaly_deg":285.1923,"bstar":0.00027532,"rev_number":5132,"period_min":94.445877099493,"perigee_km":491.11719092184,"apogee_km":492.35926436299,"semimajor_km":6869.8752276424,"source":"CELESTRAK","updated_at":"2026-05-25T13:38:04.585402Z"}}